Year,Month,Day,Hour,Minute,Value (Times are PST for windspeed in km/hr)
2020,07,12,00,00,1.30
2020,07,12,00,01,2.70
2020,07,12,00,02,1.10
2020,07,12,00,03,1.00
2020,07,12,00,04,1.80
2020,07,12,00,05,1.70
2020,07,12,00,06,2.10
2020,07,12,00,07,1.30
2020,07,12,00,08,2.10
2020,07,12,00,09,1.30
2020,07,12,00,10,0.00
2020,07,12,00,11,2.00
2020,07,12,00,12,1.00
2020,07,12,00,13,2.20
2020,07,12,00,14,2.00
2020,07,12,00,15,2.40
2020,07,12,00,16,2.50
2020,07,12,00,17,2.80
2020,07,12,00,18,2.50
2020,07,12,00,19,2.90
2020,07,12,00,20,1.30
2020,07,12,00,21,0.50
2020,07,12,00,22,2.70
2020,07,12,00,23,1.40
2020,07,12,00,24,2.40
2020,07,12,00,25,1.40
2020,07,12,00,26,2.20
2020,07,12,00,27,2.10
2020,07,12,00,28,2.10
2020,07,12,00,29,1.60
2020,07,12,00,30,1.50
2020,07,12,00,31,2.20
2020,07,12,00,32,1.80
2020,07,12,00,33,1.40
2020,07,12,00,34,2.70
2020,07,12,00,35,3.40
2020,07,12,00,36,2.00
2020,07,12,00,37,2.60
2020,07,12,00,38,1.90
2020,07,12,00,39,1.50
2020,07,12,00,40,2.90
2020,07,12,00,41,1.10
2020,07,12,00,42,1.20
2020,07,12,00,43,2.10
2020,07,12,00,44,2.10
2020,07,12,00,45,1.20
2020,07,12,00,46,2.30
2020,07,12,00,47,2.50
2020,07,12,00,48,2.00
2020,07,12,00,49,2.40
2020,07,12,00,50,1.70
2020,07,12,00,51,2.20
2020,07,12,00,52,1.40
2020,07,12,00,53,2.50
2020,07,12,00,54,1.60
2020,07,12,00,55,1.10
2020,07,12,00,56,0.70
2020,07,12,00,57,2.00
2020,07,12,00,58,1.80
2020,07,12,00,59,0.50
2020,07,12,01,00,1.40
2020,07,12,01,01,1.40
2020,07,12,01,02,1.60
2020,07,12,01,03,0.20
2020,07,12,01,04,0.00
2020,07,12,01,05,0.00
2020,07,12,01,06,0.00
2020,07,12,01,07,0.00
2020,07,12,01,08,0.00
2020,07,12,01,09,0.00
2020,07,12,01,10,0.00
2020,07,12,01,11,0.00
2020,07,12,01,12,0.00
2020,07,12,01,13,0.00
2020,07,12,01,14,0.00
2020,07,12,01,15,0.00
2020,07,12,01,16,0.00
2020,07,12,01,17,0.00
2020,07,12,01,18,0.00
2020,07,12,01,19,0.00
2020,07,12,01,20,0.00
2020,07,12,01,21,0.00
2020,07,12,01,22,0.00
2020,07,12,01,23,0.10
2020,07,12,01,24,2.90
2020,07,12,01,25,1.00
2020,07,12,01,26,2.00
2020,07,12,01,27,2.00
2020,07,12,01,28,1.80
2020,07,12,01,29,1.90
2020,07,12,01,30,1.90
2020,07,12,01,31,1.50
2020,07,12,01,32,1.30
2020,07,12,01,33,0.60
2020,07,12,01,34,3.40
2020,07,12,01,35,1.70
2020,07,12,01,36,3.20
2020,07,12,01,37,2.10
2020,07,12,01,38,1.80
2020,07,12,01,39,1.40
2020,07,12,01,40,1.00
2020,07,12,01,41,1.20
2020,07,12,01,42,2.80
2020,07,12,01,43,1.90
2020,07,12,01,44,2.60
2020,07,12,01,45,2.10
2020,07,12,01,46,1.80
2020,07,12,01,47,0.90
2020,07,12,01,48,0.50
2020,07,12,01,49,0.80
2020,07,12,01,50,1.20
2020,07,12,01,51,0.80
2020,07,12,01,52,1.10
2020,07,12,01,53,2.10
2020,07,12,01,54,0.00
2020,07,12,01,55,0.00
2020,07,12,01,56,0.20
2020,07,12,01,57,3.20
2020,07,12,01,58,1.60
2020,07,12,01,59,1.20
2020,07,12,02,00,0.70
2020,07,12,02,01,2.40
2020,07,12,02,02,0.70
2020,07,12,02,03,0.60
2020,07,12,02,04,0.50
2020,07,12,02,05,0.10
2020,07,12,02,06,1.30
2020,07,12,02,07,1.50
2020,07,12,02,08,0.00
2020,07,12,02,09,0.20
2020,07,12,02,10,0.00
2020,07,12,02,11,0.00
2020,07,12,02,12,0.00
2020,07,12,02,13,0.40
2020,07,12,02,14,0.20
2020,07,12,02,15,0.60
2020,07,12,02,16,3.00
2020,07,12,02,17,2.10
2020,07,12,02,18,0.30
2020,07,12,02,19,0.90
2020,07,12,02,20,0.10
2020,07,12,02,21,1.50
2020,07,12,02,22,0.70
2020,07,12,02,23,1.20
2020,07,12,02,24,2.50
2020,07,12,02,25,0.80
2020,07,12,02,26,0.20
2020,07,12,02,27,0.70
2020,07,12,02,28,1.20
2020,07,12,02,29,0.90
2020,07,12,02,30,1.80
2020,07,12,02,31,1.20
2020,07,12,02,32,0.40
2020,07,12,02,33,0.00
2020,07,12,02,34,0.10
2020,07,12,02,35,1.70
2020,07,12,02,36,1.70
2020,07,12,02,37,0.10
2020,07,12,02,38,0.50
2020,07,12,02,39,2.80
2020,07,12,02,40,0.80
2020,07,12,02,41,1.40
2020,07,12,02,42,1.40
2020,07,12,02,43,0.60
2020,07,12,02,44,0.00
2020,07,12,02,45,0.60
2020,07,12,02,46,1.90
2020,07,12,02,47,0.70
2020,07,12,02,48,1.10
2020,07,12,02,49,1.70
2020,07,12,02,50,1.60
2020,07,12,02,51,0.40
2020,07,12,02,52,1.70
2020,07,12,02,53,0.20
2020,07,12,02,54,1.00
2020,07,12,02,55,1.70
2020,07,12,02,56,0.20
2020,07,12,02,57,0.30
2020,07,12,02,58,1.60
2020,07,12,02,59,0.80
2020,07,12,03,00,1.40
2020,07,12,03,01,0.10
2020,07,12,03,02,0.10
2020,07,12,03,03,0.60
2020,07,12,03,04,0.20
2020,07,12,03,05,1.10
2020,07,12,03,06,0.80
2020,07,12,03,07,0.50
2020,07,12,03,08,0.00
2020,07,12,03,09,0.00
2020,07,12,03,10,0.00
2020,07,12,03,11,0.00
2020,07,12,03,12,0.00
2020,07,12,03,13,0.00
2020,07,12,03,14,0.00
2020,07,12,03,15,1.30
2020,07,12,03,16,1.30
2020,07,12,03,17,0.70
2020,07,12,03,18,0.20
2020,07,12,03,19,0.80
2020,07,12,03,20,0.20
2020,07,12,03,21,0.00
2020,07,12,03,22,0.40
2020,07,12,03,23,0.00
2020,07,12,03,24,0.00
2020,07,12,03,25,0.00
2020,07,12,03,26,0.20
2020,07,12,03,27,0.20
2020,07,12,03,28,0.00
2020,07,12,03,29,0.00
2020,07,12,03,30,0.00
2020,07,12,03,31,0.00
2020,07,12,03,32,0.00
2020,07,12,03,33,0.00
2020,07,12,03,34,0.00
2020,07,12,03,35,0.00
2020,07,12,03,36,0.00
2020,07,12,03,37,0.00
2020,07,12,03,38,0.10
2020,07,12,03,39,0.00
2020,07,12,03,40,0.00
2020,07,12,03,41,0.00
2020,07,12,03,42,0.00
2020,07,12,03,43,0.00
2020,07,12,03,44,0.00
2020,07,12,03,45,0.00
2020,07,12,03,46,0.00
2020,07,12,03,47,0.00
2020,07,12,03,48,0.00
2020,07,12,03,49,0.00
2020,07,12,03,50,0.00
2020,07,12,03,51,0.00
2020,07,12,03,52,0.30
2020,07,12,03,53,0.00
2020,07,12,03,54,0.00
2020,07,12,03,55,0.00
2020,07,12,03,56,0.00
2020,07,12,03,57,0.00
2020,07,12,03,58,2.50
2020,07,12,03,59,0.30
2020,07,12,04,00,0.00
2020,07,12,04,01,1.80
2020,07,12,04,02,2.00
2020,07,12,04,03,0.00
2020,07,12,04,04,1.30
2020,07,12,04,05,1.40
2020,07,12,04,06,0.20
2020,07,12,04,07,0.10
2020,07,12,04,08,0.10
2020,07,12,04,09,0.10
2020,07,12,04,10,0.00
2020,07,12,04,11,0.50
2020,07,12,04,12,0.30
2020,07,12,04,13,1.00
2020,07,12,04,14,0.40
2020,07,12,04,15,0.60
2020,07,12,04,16,0.20
2020,07,12,04,17,0.00
2020,07,12,04,18,0.00
2020,07,12,04,19,0.10
2020,07,12,04,20,0.30
2020,07,12,04,21,0.40
2020,07,12,04,22,0.40
2020,07,12,04,23,0.00
2020,07,12,04,24,0.90
2020,07,12,04,25,0.20
2020,07,12,04,26,0.10
2020,07,12,04,27,0.10
2020,07,12,04,28,0.10
2020,07,12,04,29,0.10
2020,07,12,04,30,0.00
2020,07,12,04,31,0.00
2020,07,12,04,32,0.20
2020,07,12,04,33,0.80
2020,07,12,04,34,0.00
2020,07,12,04,35,0.10
2020,07,12,04,36,0.00
2020,07,12,04,37,0.00
2020,07,12,04,38,0.00
2020,07,12,04,39,0.00
2020,07,12,04,40,0.00
2020,07,12,04,41,0.00
2020,07,12,04,42,0.00
2020,07,12,04,43,0.00
2020,07,12,04,44,0.00
2020,07,12,04,45,0.00
2020,07,12,04,46,0.00
2020,07,12,04,47,0.00
2020,07,12,04,48,0.10
2020,07,12,04,49,0.00
2020,07,12,04,50,0.00
2020,07,12,04,51,0.00
2020,07,12,04,52,0.10
2020,07,12,04,53,0.10
2020,07,12,04,54,0.40
2020,07,12,04,55,0.10
2020,07,12,04,56,0.10
2020,07,12,04,57,0.00
2020,07,12,04,58,0.00
2020,07,12,04,59,0.00
2020,07,12,05,00,0.00
2020,07,12,05,01,0.00
2020,07,12,05,02,0.00
2020,07,12,05,03,0.00
2020,07,12,05,04,0.00
2020,07,12,05,05,0.00
2020,07,12,05,06,0.00
2020,07,12,05,07,0.00
2020,07,12,05,08,0.00
2020,07,12,05,09,0.00
2020,07,12,05,10,0.00
2020,07,12,05,11,0.00
2020,07,12,05,12,0.00
2020,07,12,05,13,0.00
2020,07,12,05,14,0.00
2020,07,12,05,15,0.00
2020,07,12,05,16,0.00
2020,07,12,05,17,0.00
2020,07,12,05,18,0.00
2020,07,12,05,19,0.00
2020,07,12,05,20,0.00
2020,07,12,05,21,0.00
2020,07,12,05,22,0.00
2020,07,12,05,23,0.00
2020,07,12,05,24,0.00
2020,07,12,05,25,0.10
2020,07,12,05,26,0.00
2020,07,12,05,27,0.00
2020,07,12,05,28,0.20
2020,07,12,05,29,0.10
2020,07,12,05,30,0.10
2020,07,12,05,31,0.10
2020,07,12,05,32,0.00
2020,07,12,05,33,0.00
2020,07,12,05,34,0.00
2020,07,12,05,35,0.00
2020,07,12,05,36,0.20
2020,07,12,05,37,0.70
2020,07,12,05,38,0.10
2020,07,12,05,39,0.50
2020,07,12,05,40,0.00
2020,07,12,05,41,0.00
2020,07,12,05,42,0.00
2020,07,12,05,43,0.00
2020,07,12,05,44,0.10
2020,07,12,05,45,0.70
2020,07,12,05,46,0.20
2020,07,12,05,47,0.00
2020,07,12,05,48,0.00
2020,07,12,05,49,0.10
2020,07,12,05,50,0.20
2020,07,12,05,51,0.10
2020,07,12,05,52,0.10
2020,07,12,05,53,0.00
2020,07,12,05,54,0.10
2020,07,12,05,55,0.00
2020,07,12,05,56,0.80
2020,07,12,05,57,0.00
2020,07,12,05,58,0.00
2020,07,12,05,59,0.00
2020,07,12,06,00,0.00
2020,07,12,06,01,0.40
2020,07,12,06,02,0.00
2020,07,12,06,03,0.00
2020,07,12,06,04,0.20
2020,07,12,06,05,0.00
2020,07,12,06,06,0.20
2020,07,12,06,07,0.20
2020,07,12,06,08,0.40
2020,07,12,06,09,0.50
2020,07,12,06,10,0.10
2020,07,12,06,11,0.00
2020,07,12,06,12,0.20
2020,07,12,06,13,0.60
2020,07,12,06,14,0.00
2020,07,12,06,15,0.00
2020,07,12,06,16,0.30
2020,07,12,06,17,0.20
2020,07,12,06,18,0.00
2020,07,12,06,19,0.00
2020,07,12,06,20,0.00
2020,07,12,06,21,0.30
2020,07,12,06,22,0.10
2020,07,12,06,23,0.00
2020,07,12,06,24,0.00
2020,07,12,06,25,0.00
2020,07,12,06,26,0.00
2020,07,12,06,27,0.00
2020,07,12,06,28,0.10
2020,07,12,06,29,0.20
2020,07,12,06,30,0.10
2020,07,12,06,31,0.00
2020,07,12,06,32,0.00
2020,07,12,06,33,0.00
2020,07,12,06,34,0.00
2020,07,12,06,35,0.00
2020,07,12,06,36,1.30
2020,07,12,06,37,0.10
2020,07,12,06,38,0.20
2020,07,12,06,39,0.30
2020,07,12,06,40,0.00
2020,07,12,06,41,0.80
2020,07,12,06,42,0.10
2020,07,12,06,43,0.40
2020,07,12,06,44,0.10
2020,07,12,06,45,0.00
2020,07,12,06,46,0.00
2020,07,12,06,47,0.40
2020,07,12,06,48,0.00
2020,07,12,06,49,0.00
2020,07,12,06,50,0.00
2020,07,12,06,51,0.00
2020,07,12,06,52,0.10
2020,07,12,06,53,0.20
2020,07,12,06,54,0.00
2020,07,12,06,55,0.00
2020,07,12,06,56,0.00
2020,07,12,06,57,0.10
2020,07,12,06,58,0.10
2020,07,12,06,59,0.00
2020,07,12,07,00,0.00
2020,07,12,07,01,0.00
2020,07,12,07,02,0.00
2020,07,12,07,03,0.20
2020,07,12,07,04,0.00
2020,07,12,07,05,0.00
2020,07,12,07,06,0.00
2020,07,12,07,07,0.00
2020,07,12,07,08,0.00
2020,07,12,07,09,0.10
2020,07,12,07,10,0.80
2020,07,12,07,11,0.60
2020,07,12,07,12,0.50
2020,07,12,07,13,0.60
2020,07,12,07,14,0.00
2020,07,12,07,15,0.00
2020,07,12,07,16,0.00
2020,07,12,07,17,0.00
2020,07,12,07,18,0.00
2020,07,12,07,19,0.00
2020,07,12,07,20,0.20
2020,07,12,07,21,0.30
2020,07,12,07,22,0.90
2020,07,12,07,23,0.20
2020,07,12,07,24,0.40
2020,07,12,07,25,0.20
2020,07,12,07,26,0.20
2020,07,12,07,27,0.10
2020,07,12,07,28,0.00
2020,07,12,07,29,0.20
2020,07,12,07,30,0.00
2020,07,12,07,31,0.10
2020,07,12,07,32,1.90
2020,07,12,07,33,0.70
2020,07,12,07,34,0.10
2020,07,12,07,35,0.00
2020,07,12,07,36,0.90
2020,07,12,07,37,0.40
2020,07,12,07,38,1.10
2020,07,12,07,39,0.00
2020,07,12,07,40,0.10
2020,07,12,07,41,1.40
2020,07,12,07,42,1.50
2020,07,12,07,43,1.80
2020,07,12,07,44,2.10
2020,07,12,07,45,1.50
2020,07,12,07,46,1.70
2020,07,12,07,47,0.60
2020,07,12,07,48,1.80
2020,07,12,07,49,1.20
2020,07,12,07,50,0.20
2020,07,12,07,51,0.60
2020,07,12,07,52,0.90
2020,07,12,07,53,1.30
2020,07,12,07,54,0.00
2020,07,12,07,55,0.00
2020,07,12,07,56,0.60
2020,07,12,07,57,2.40
2020,07,12,07,58,1.50
2020,07,12,07,59,1.50
2020,07,12,08,00,1.40
2020,07,12,08,01,1.00
2020,07,12,08,02,1.70
2020,07,12,08,03,0.50
2020,07,12,08,04,2.20
2020,07,12,08,05,1.40
2020,07,12,08,06,0.90
2020,07,12,08,07,1.40
2020,07,12,08,08,3.00
2020,07,12,08,09,2.30
2020,07,12,08,10,2.00
2020,07,12,08,11,2.50
2020,07,12,08,12,2.40
2020,07,12,08,13,0.70
2020,07,12,08,14,0.80
2020,07,12,08,15,3.30
2020,07,12,08,16,0.60
2020,07,12,08,17,0.50
2020,07,12,08,18,3.30
2020,07,12,08,19,2.70
2020,07,12,08,20,2.00
2020,07,12,08,21,1.70
2020,07,12,08,22,0.80
2020,07,12,08,23,0.60
2020,07,12,08,24,3.40
2020,07,12,08,25,2.10
2020,07,12,08,26,0.10
2020,07,12,08,27,1.30
2020,07,12,08,28,1.70
2020,07,12,08,29,1.40
2020,07,12,08,30,2.30
2020,07,12,08,31,1.60
2020,07,12,08,32,1.70
2020,07,12,08,33,1.10
2020,07,12,08,34,0.00
2020,07,12,08,35,0.50
2020,07,12,08,36,0.20
2020,07,12,08,37,2.00
2020,07,12,08,38,0.50
2020,07,12,08,39,2.30
2020,07,12,08,40,0.60
2020,07,12,08,41,0.10
2020,07,12,08,42,0.20
2020,07,12,08,43,0.90
2020,07,12,08,44,1.40
2020,07,12,08,45,2.50
2020,07,12,08,46,2.20
2020,07,12,08,47,0.90
2020,07,12,08,48,0.30
2020,07,12,08,49,0.00
2020,07,12,08,50,1.30
2020,07,12,08,51,2.40
2020,07,12,08,52,2.90
2020,07,12,08,53,1.20
2020,07,12,08,54,0.50
2020,07,12,08,55,0.10
2020,07,12,08,56,0.00
2020,07,12,08,57,0.40
2020,07,12,08,58,0.00
2020,07,12,08,59,0.40
2020,07,12,09,00,2.70
2020,07,12,09,01,1.10
2020,07,12,09,02,0.50
2020,07,12,09,03,0.60
2020,07,12,09,04,0.60
2020,07,12,09,05,0.20
2020,07,12,09,06,0.60
2020,07,12,09,07,1.80
2020,07,12,09,08,2.20
2020,07,12,09,09,1.00
2020,07,12,09,10,0.60
2020,07,12,09,11,2.00
2020,07,12,09,12,1.60
2020,07,12,09,13,1.00
2020,07,12,09,14,0.30
2020,07,12,09,15,2.40
2020,07,12,09,16,1.90
2020,07,12,09,17,0.60
2020,07,12,09,18,1.00
2020,07,12,09,19,1.30
2020,07,12,09,20,1.20
2020,07,12,09,21,0.50
2020,07,12,09,22,0.70
2020,07,12,09,23,2.00
2020,07,12,09,24,1.30
2020,07,12,09,25,0.20
2020,07,12,09,26,1.80
2020,07,12,09,27,3.00
2020,07,12,09,28,2.50
2020,07,12,09,29,1.60
2020,07,12,09,30,2.60
2020,07,12,09,31,2.10
2020,07,12,09,32,1.10
2020,07,12,09,33,2.80
2020,07,12,09,34,0.60
2020,07,12,09,35,3.40
2020,07,12,09,36,1.60
2020,07,12,09,37,0.20
2020,07,12,09,38,0.10
2020,07,12,09,39,0.00
2020,07,12,09,40,0.10
2020,07,12,09,41,0.10
2020,07,12,09,42,0.00
2020,07,12,09,43,0.00
2020,07,12,09,44,0.00
2020,07,12,09,45,0.00
2020,07,12,09,46,0.00
2020,07,12,09,47,0.10
2020,07,12,09,48,0.10
2020,07,12,09,49,0.10
2020,07,12,09,50,0.00
2020,07,12,09,51,0.00
2020,07,12,09,52,0.00
2020,07,12,09,53,0.00
2020,07,12,09,54,0.00
2020,07,12,09,55,0.00
2020,07,12,09,56,0.00
2020,07,12,09,57,0.00
2020,07,12,09,58,0.00
2020,07,12,09,59,0.00
2020,07,12,10,00,0.00
2020,07,12,10,01,0.00
2020,07,12,10,02,0.00
2020,07,12,10,03,0.00
2020,07,12,10,04,0.00
2020,07,12,10,05,0.00
2020,07,12,10,06,0.00
2020,07,12,10,07,0.00
2020,07,12,10,08,0.00
2020,07,12,10,09,0.00
2020,07,12,10,10,0.00
2020,07,12,10,11,0.00
2020,07,12,10,12,0.00
2020,07,12,10,13,0.00
2020,07,12,10,14,0.00
2020,07,12,10,15,0.00
2020,07,12,10,16,0.00
2020,07,12,10,17,0.00
2020,07,12,10,18,0.00
2020,07,12,10,19,0.00
2020,07,12,10,20,0.00
2020,07,12,10,21,0.00
2020,07,12,10,22,0.00
2020,07,12,10,23,0.00
2020,07,12,10,24,0.00
2020,07,12,10,25,0.00
2020,07,12,10,26,0.00
2020,07,12,10,27,0.00
2020,07,12,10,28,0.00
2020,07,12,10,29,0.00
2020,07,12,10,30,0.00
2020,07,12,10,31,0.00
2020,07,12,10,32,0.00
2020,07,12,10,33,0.00
2020,07,12,10,34,0.00
2020,07,12,10,35,0.00
2020,07,12,10,36,0.00
2020,07,12,10,37,0.00
2020,07,12,10,38,0.00
2020,07,12,10,39,0.00
2020,07,12,10,40,0.00
2020,07,12,10,41,0.00
2020,07,12,10,42,0.00
2020,07,12,10,43,0.00
2020,07,12,10,44,0.00
2020,07,12,10,45,0.00
2020,07,12,10,46,0.00
2020,07,12,10,47,0.00
2020,07,12,10,48,0.00
2020,07,12,10,49,0.00
2020,07,12,10,50,0.00
2020,07,12,10,51,0.00
2020,07,12,10,52,0.00
2020,07,12,10,53,0.00
2020,07,12,10,54,0.00
2020,07,12,10,55,0.00
2020,07,12,10,56,0.00
2020,07,12,10,57,0.00
2020,07,12,10,58,0.00
2020,07,12,10,59,0.00
2020,07,12,11,00,0.00
2020,07,12,11,01,0.00
2020,07,12,11,02,0.00
2020,07,12,11,03,0.00
2020,07,12,11,04,0.00
2020,07,12,11,05,0.00
2020,07,12,11,06,0.00
2020,07,12,11,07,0.10
2020,07,12,11,08,0.00
2020,07,12,11,09,0.00
2020,07,12,11,10,0.00
2020,07,12,11,11,0.00
2020,07,12,11,12,0.00
2020,07,12,11,13,0.00
2020,07,12,11,14,0.00
2020,07,12,11,15,0.00
2020,07,12,11,16,0.00
2020,07,12,11,17,0.00
2020,07,12,11,18,0.00
2020,07,12,11,19,0.00
2020,07,12,11,20,0.00
2020,07,12,11,21,0.00
2020,07,12,11,22,0.00
2020,07,12,11,23,0.00
2020,07,12,11,24,0.00
2020,07,12,11,25,0.00
2020,07,12,11,26,0.00
2020,07,12,11,27,0.00
2020,07,12,11,28,0.00
2020,07,12,11,29,0.00
2020,07,12,11,30,0.00
2020,07,12,11,31,0.00
2020,07,12,11,32,0.00
2020,07,12,11,33,0.00
2020,07,12,11,34,0.00
2020,07,12,11,35,0.00
2020,07,12,11,36,0.00
2020,07,12,11,37,0.00
2020,07,12,11,38,0.00
2020,07,12,11,39,0.00
2020,07,12,11,40,0.00
2020,07,12,11,41,0.40
2020,07,12,11,42,0.30
2020,07,12,11,43,0.10
2020,07,12,11,44,0.10
2020,07,12,11,45,0.00
2020,07,12,11,46,0.00
2020,07,12,11,47,0.40
2020,07,12,11,48,0.10
2020,07,12,11,49,0.00
2020,07,12,11,50,0.00
2020,07,12,11,51,0.00
2020,07,12,11,52,0.00
2020,07,12,11,53,0.00
2020,07,12,11,54,0.00
2020,07,12,11,55,0.00
2020,07,12,11,56,0.00
2020,07,12,11,57,0.00
2020,07,12,11,58,0.00
2020,07,12,11,59,0.00
2020,07,12,12,00,0.00
2020,07,12,12,01,0.00
2020,07,12,12,02,0.00
2020,07,12,12,03,0.00
2020,07,12,12,04,0.00
2020,07,12,12,05,0.00
2020,07,12,12,06,0.00
2020,07,12,12,07,0.00
2020,07,12,12,08,0.00
2020,07,12,12,09,0.00
2020,07,12,12,10,0.00
2020,07,12,12,11,0.00
2020,07,12,12,12,0.00
2020,07,12,12,13,0.00
2020,07,12,12,14,0.00
2020,07,12,12,15,0.00
2020,07,12,12,16,0.00
2020,07,12,12,17,0.00
2020,07,12,12,18,0.00
2020,07,12,12,19,0.00
2020,07,12,12,20,0.00
2020,07,12,12,21,0.00
2020,07,12,12,22,0.00
2020,07,12,12,23,0.00
2020,07,12,12,24,0.00
2020,07,12,12,25,0.00
2020,07,12,12,26,0.00
2020,07,12,12,27,0.00
2020,07,12,12,28,0.00
2020,07,12,12,29,0.00
2020,07,12,12,30,0.00
2020,07,12,12,31,0.00
2020,07,12,12,32,0.00
2020,07,12,12,33,0.00
2020,07,12,12,34,0.00
2020,07,12,12,35,0.00
2020,07,12,12,36,0.00
2020,07,12,12,37,0.00
2020,07,12,12,38,0.00
2020,07,12,12,39,0.00
2020,07,12,12,40,0.00
2020,07,12,12,41,0.00
2020,07,12,12,42,0.00
2020,07,12,12,43,0.00
2020,07,12,12,44,0.00
2020,07,12,12,45,0.00
2020,07,12,12,46,0.00
2020,07,12,12,47,0.00
2020,07,12,12,48,0.00
2020,07,12,12,49,0.00
2020,07,12,12,50,0.00
2020,07,12,12,51,0.00
2020,07,12,12,52,0.00
2020,07,12,12,53,0.00
2020,07,12,12,54,0.00
2020,07,12,12,55,0.00
2020,07,12,12,56,1.20
2020,07,12,12,57,0.10
2020,07,12,12,58,0.00
2020,07,12,12,59,0.00
2020,07,12,13,00,0.00
2020,07,12,13,01,0.00
2020,07,12,13,02,0.00
2020,07,12,13,03,0.00
2020,07,12,13,04,0.00
2020,07,12,13,05,0.00
2020,07,12,13,06,0.00
2020,07,12,13,07,0.00
2020,07,12,13,08,0.00
2020,07,12,13,09,0.20
2020,07,12,13,10,1.30
2020,07,12,13,11,0.60
2020,07,12,13,12,1.60
2020,07,12,13,13,2.20
2020,07,12,13,14,3.00
2020,07,12,13,15,2.50
2020,07,12,13,16,2.30
2020,07,12,13,17,0.50
2020,07,12,13,18,1.20
2020,07,12,13,19,2.00
2020,07,12,13,20,2.00
2020,07,12,13,21,2.10
2020,07,12,13,22,2.70
2020,07,12,13,23,2.40
2020,07,12,13,24,3.40
2020,07,12,13,25,3.00
2020,07,12,13,26,2.90
2020,07,12,13,27,2.90
2020,07,12,13,28,2.90
2020,07,12,13,29,2.90
2020,07,12,13,30,2.90
2020,07,12,13,31,4.80
2020,07,12,13,32,3.40
2020,07,12,13,33,4.30
2020,07,12,13,34,3.70
2020,07,12,13,35,3.30
2020,07,12,13,36,3.90
2020,07,12,13,37,3.90
2020,07,12,13,38,4.00
2020,07,12,13,39,2.60
2020,07,12,13,40,2.20
2020,07,12,13,41,3.00
2020,07,12,13,42,3.30
2020,07,12,13,43,2.60
2020,07,12,13,44,2.80
2020,07,12,13,45,2.20
2020,07,12,13,46,2.80
2020,07,12,13,47,3.80
2020,07,12,13,48,3.90
2020,07,12,13,49,3.30
2020,07,12,13,50,4.10
2020,07,12,13,51,3.60
2020,07,12,13,52,3.20
2020,07,12,13,53,3.00
2020,07,12,13,54,4.00
2020,07,12,13,55,4.20
2020,07,12,13,56,3.20
2020,07,12,13,57,2.90
2020,07,12,13,58,3.90
2020,07,12,13,59,4.20
2020,07,12,14,00,3.10
2020,07,12,14,01,4.10
2020,07,12,14,02,4.70
2020,07,12,14,03,4.00
2020,07,12,14,04,4.70
2020,07,12,14,05,4.60
2020,07,12,14,06,5.40
2020,07,12,14,07,4.90
2020,07,12,14,08,3.90
2020,07,12,14,09,4.60
2020,07,12,14,10,4.00
2020,07,12,14,11,4.30
2020,07,12,14,12,4.50
2020,07,12,14,13,4.10
2020,07,12,14,14,4.00
2020,07,12,14,15,3.90
2020,07,12,14,16,3.80
2020,07,12,14,17,5.40
2020,07,12,14,18,5.60
2020,07,12,14,19,5.80
2020,07,12,14,20,6.10
2020,07,12,14,21,6.10
2020,07,12,14,22,5.20
2020,07,12,14,23,4.00
2020,07,12,14,24,3.30
2020,07,12,14,25,4.00
2020,07,12,14,26,3.60
2020,07,12,14,27,4.90
2020,07,12,14,28,4.70
2020,07,12,14,29,4.00
2020,07,12,14,30,4.90
2020,07,12,14,31,5.50
2020,07,12,14,32,4.80
2020,07,12,14,33,4.80
2020,07,12,14,34,5.60
2020,07,12,14,35,5.20
2020,07,12,14,36,5.20
2020,07,12,14,37,6.00
2020,07,12,14,38,4.50
2020,07,12,14,39,5.80
2020,07,12,14,40,4.80
2020,07,12,14,41,5.60
2020,07,12,14,42,5.40
2020,07,12,14,43,5.80
2020,07,12,14,44,5.90
2020,07,12,14,45,5.10
2020,07,12,14,46,5.70
2020,07,12,14,47,5.30
2020,07,12,14,48,5.40
2020,07,12,14,49,5.90
2020,07,12,14,50,5.60
2020,07,12,14,51,6.40
2020,07,12,14,52,6.60
2020,07,12,14,53,6.80
2020,07,12,14,54,6.30
2020,07,12,14,55,6.10
2020,07,12,14,56,5.60
2020,07,12,14,57,6.20
2020,07,12,14,58,7.60
2020,07,12,14,59,6.60
2020,07,12,15,00,6.60
2020,07,12,15,01,5.40
2020,07,12,15,02,7.30
2020,07,12,15,03,7.30
2020,07,12,15,04,6.80
2020,07,12,15,05,6.10
2020,07,12,15,06,6.10
2020,07,12,15,07,6.90
2020,07,12,15,08,6.70
2020,07,12,15,09,7.20
2020,07,12,15,10,6.80
2020,07,12,15,11,7.30
2020,07,12,15,12,8.50
2020,07,12,15,13,7.90
2020,07,12,15,14,5.40
2020,07,12,15,15,6.10
2020,07,12,15,16,7.00
2020,07,12,15,17,6.60
2020,07,12,15,18,6.90
2020,07,12,15,19,7.30
2020,07,12,15,20,5.60
2020,07,12,15,21,5.10
2020,07,12,15,22,7.50
2020,07,12,15,23,8.10
2020,07,12,15,24,7.20
2020,07,12,15,25,5.20
2020,07,12,15,26,6.80
2020,07,12,15,27,7.30
2020,07,12,15,28,6.60
2020,07,12,15,29,7.10
2020,07,12,15,30,7.70
2020,07,12,15,31,6.70
2020,07,12,15,32,8.20
2020,07,12,15,33,8.20
2020,07,12,15,34,8.10
2020,07,12,15,35,9.00
2020,07,12,15,36,6.60
2020,07,12,15,37,7.10
2020,07,12,15,38,5.60
2020,07,12,15,39,6.00
2020,07,12,15,40,6.30
2020,07,12,15,41,5.60
2020,07,12,15,42,5.90
2020,07,12,15,43,5.50
2020,07,12,15,44,6.20
2020,07,12,15,45,6.60
2020,07,12,15,46,6.60
2020,07,12,15,47,4.60
2020,07,12,15,48,5.60
2020,07,12,15,49,5.10
2020,07,12,15,50,4.90
2020,07,12,15,51,4.60
2020,07,12,15,52,3.40
2020,07,12,15,53,3.40
2020,07,12,15,54,4.00
2020,07,12,15,55,5.30
2020,07,12,15,56,5.50
2020,07,12,15,57,4.80
2020,07,12,15,58,5.30
2020,07,12,15,59,6.30
2020,07,12,16,00,6.40
2020,07,12,16,01,6.00
2020,07,12,16,02,5.90
2020,07,12,16,03,4.50
2020,07,12,16,04,6.00
2020,07,12,16,05,7.10
2020,07,12,16,06,6.10
2020,07,12,16,07,5.30
2020,07,12,16,08,6.20
2020,07,12,16,09,5.30
2020,07,12,16,10,6.30
2020,07,12,16,11,6.10
2020,07,12,16,12,8.80
2020,07,12,16,13,6.30
2020,07,12,16,14,7.50
2020,07,12,16,15,6.30
2020,07,12,16,16,6.70
2020,07,12,16,17,6.60
2020,07,12,16,18,6.00
2020,07,12,16,19,6.30
2020,07,12,16,20,4.60
2020,07,12,16,21,5.50
2020,07,12,16,22,5.80
2020,07,12,16,23,6.00
2020,07,12,16,24,6.10
2020,07,12,16,25,7.80
2020,07,12,16,26,8.10
2020,07,12,16,27,7.00
2020,07,12,16,28,7.00
2020,07,12,16,29,10.50
2020,07,12,16,30,6.80
2020,07,12,16,31,6.30
2020,07,12,16,32,6.00
2020,07,12,16,33,7.10
2020,07,12,16,34,6.70
2020,07,12,16,35,5.80
2020,07,12,16,36,4.90
2020,07,12,16,37,6.70
2020,07,12,16,38,6.10
2020,07,12,16,39,6.30
2020,07,12,16,40,5.70
2020,07,12,16,41,6.10
2020,07,12,16,42,8.20
2020,07,12,16,43,7.10
2020,07,12,16,44,7.30
2020,07,12,16,45,7.60
2020,07,12,16,46,7.00
2020,07,12,16,47,5.30
2020,07,12,16,48,6.60
2020,07,12,16,49,7.00
2020,07,12,16,50,4.80
2020,07,12,16,51,4.90
2020,07,12,16,52,2.60
2020,07,12,16,53,3.30
2020,07,12,16,54,3.90
2020,07,12,16,55,3.00
2020,07,12,16,56,4.20
2020,07,12,16,57,2.60
2020,07,12,16,58,0.80
2020,07,12,16,59,2.80
2020,07,12,17,00,3.00
2020,07,12,17,01,3.10
2020,07,12,17,02,2.90
2020,07,12,17,03,3.10
2020,07,12,17,04,3.80
2020,07,12,17,05,2.70
2020,07,12,17,06,2.90
2020,07,12,17,07,1.60
2020,07,12,17,08,1.50
2020,07,12,17,09,0.90
2020,07,12,17,10,1.20
2020,07,12,17,11,3.00
2020,07,12,17,12,1.80
2020,07,12,17,13,0.50
2020,07,12,17,14,2.10
2020,07,12,17,15,2.20
2020,07,12,17,16,0.90
2020,07,12,17,17,0.00
2020,07,12,17,18,1.20
2020,07,12,17,19,1.70
2020,07,12,17,20,2.20
2020,07,12,17,21,0.70
2020,07,12,17,22,1.10
2020,07,12,17,23,2.30
2020,07,12,17,24,0.90
2020,07,12,17,25,1.30
2020,07,12,17,26,0.90
2020,07,12,17,27,1.70
2020,07,12,17,28,1.30
2020,07,12,17,29,0.20
2020,07,12,17,30,0.80
2020,07,12,17,31,1.30
2020,07,12,17,32,1.30
2020,07,12,17,33,1.20
2020,07,12,17,34,0.00
2020,07,12,17,35,1.20
2020,07,12,17,36,1.50
2020,07,12,17,37,1.30
2020,07,12,17,38,1.00
2020,07,12,17,39,1.90
2020,07,12,17,40,0.50
2020,07,12,17,41,0.20
2020,07,12,17,42,1.00
2020,07,12,17,43,0.30
2020,07,12,17,44,0.50
2020,07,12,17,45,0.10
2020,07,12,17,46,0.50
2020,07,12,17,47,0.00
2020,07,12,17,48,0.30
2020,07,12,17,49,1.40
2020,07,12,17,50,1.80
2020,07,12,17,51,0.10
2020,07,12,17,52,2.70
2020,07,12,17,53,1.90
2020,07,12,17,54,0.90
2020,07,12,17,55,0.20
2020,07,12,17,56,0.00
2020,07,12,17,57,2.40
2020,07,12,17,58,0.90
2020,07,12,17,59,0.50
2020,07,12,18,00,0.60
2020,07,12,18,01,0.70
2020,07,12,18,02,2.00
2020,07,12,18,03,2.50
2020,07,12,18,04,3.20
2020,07,12,18,05,1.70
2020,07,12,18,06,2.60